Location: ???? ?????????
(31.1304°N, 31.7111°E)
Time: 12:02:58
(UTC+00:00)

Cosmos-2242 - Pass Details

Date: 29 October 2020
Orbit: 592 x 616 km, 82.5° (Epoch: 27 November)

Event Time Altitude Azimuth Distance (km) Brightness Sun altitude
Rises 17:04:39 0° 190° (S) 2,811 6.6 -25.7°
Reaches altitude 10° 17:06:51 10° 192° (SSW) 1,915 5.7 -26.2°
Enters shadow 17:09:03 30° 200° (SSW) 1,070 4.4 -26.7°
